Location: Gleizolles
(44.4833°N, 6.7667°E)
Time: 22:07:31
(UTC+00:00)

A-11 Canister half - Pass Details

Date: 01 July 2024
Orbit: 1524 x 1684 km, 47.3° (Epoch: 18 July)

Event Time Altitude Azimuth Distance (km) Brightness Sun altitude
Rises 12:26:39 0° 269° (W) 4,761 11.7 66.3°
Reaches altitude 10° 12:29:47 10° 271° (W) 3,757 11.4 66.0°
Maximum altitude 12:39:17 75° 357° (N) 1,582 10.1 65.1°
Drops below altitude 10° 12:48:36 10° 84° (E) 3,690 10.9 64.0°
Sets 12:51:38 0° 86° (E) 4,673 11.3 63.7°
